Regional Weather Roundup
Issued by NWS Jackson, KY

Home | Current Version | Previous Version | Text Only | Print | Product List | Glossary Off
Versions: 1 2 3 4 5 6 7 8 9 10 11 12 13 14 15 16 17 18 19 20 21 22 23 24 25 26 27

000
ASUS43 KJKL 231210
RWRJKL

EAST KENTUCKY HOURLY WEATHER ROUNDUP
NATIONAL WEATHER SERVICE JACKSON KY
700 AM EST THU FEB 23 2017

NOTE: "FAIR" INDICATES FEW OR NO CLOUDS BELOW 12,000 FEET WITH
NO SIGNIFICANT WEATHER AND/OR OBSTRUCTIONS TO VISIBILITY.

* THESE REPORTS ARE NOT UNDER NWS QUALITY CONTROL AND MAY NOT
  REPORT WEATHER SUCH AS PRECIPITATION AND FOG.

KYZ079-080-083-085-087-088-110-112-115-119-120-231300
...EASTERN KENTUCKY...

CITY           SKY/WX    TMP DP  RH WIND       PRES   REMARKS
JACKSON        CLOUDY    54  51  90 VRB5      29.88S
6HR MIN TEMP:  52; 6HR MAX TEMP:  54;

LONDON         FOG       47  46  97 CALM      29.89R VSB 1/4
6HR MIN TEMP:  45; 6HR MAX TEMP:  53;

SOMERSET*      FOG       50  50 100 CALM      29.90R VSB 1/2
MONTICELLO*    FOG       46  46 100 CALM      29.90R VSB 1/2
6HR MIN TEMP:  45; 6HR MAX TEMP:  56;

WILLIAMSBURG*    N/A     46  46 100 CALM      29.89R VSB 1/2
MIDDLESBORO*   FOG       45  45 100 CALM      29.93R VSB 1/2
6HR MIN TEMP:  44; 6HR MAX TEMP:  47;

HARLAN APT*    CLOUDY    46  46 100 CALM      29.92R VSB<1/4
PIKE CO APT*   MOCLDY    52  52 100 SE3       29.90R
BIG SANDY APT* MOSUNNY   52  52 100 S3        29.90R
6HR MIN TEMP:  52; 6HR MAX TEMP:  56;

MOREHEAD APT*  CLOUDY    55  54  94 CALM      29.88S
ASHLAND*       CLOUDY    52  50  93 CALM      29.85R
$$

KYZ035-036-041-042-044-050-067-078-099-231300
...CENTRAL KENTUCKY...

CITY           SKY/WX    TMP DP  RH WIND       PRES   REMARKS
MT STERLING*   CLOUDY    55  54  94 SW7       29.88R
FLEMING/MASON* CLOUDY    55  54  95 S9        29.86S
DANVILLE*      CLOUDY    54  54 100 SW5       29.88R
LEXINGTON      CLOUDY    56  53  90 S7        29.86R
6HR MIN TEMP:  54; 6HR MAX TEMP:  58;

FRANKFORT      CLOUDY    57  53  86 S5        29.83S
6HR MIN TEMP:  56; 6HR MAX TEMP:  62;

LOUISVILLE     CLOUDY    61  55  81 CALM      29.82S
6HR MIN TEMP:  61; 6HR MAX TEMP:  65;

LEBANON*         N/A     57  55  94 S9        29.86S
GLASGOW*       CLOUDY   N/A N/A N/A CALM      29.86S
BOWLING GREEN  CLOUDY    55  53  93 CALM      29.85S FOG
6HR MIN TEMP:  51; 6HR MAX TEMP:  59;

$$

KYZ091>093-OHZ055-061-077-WVZ005-015-034-035-042-231300
...SOUTHERN OHIO/WEST VIRGINIA...

CITY           SKY/WX    TMP DP  RH WIND       PRES   REMARKS
COVINGTON      CLOUDY    59  55  87 S8        29.81S
COLUMBUS       MOCLDY    58  54  86 S8        29.79S
DAYTON         PTCLDY    55  54  96 SW12      29.78S
WILMINGTON     CLOUDY    57  55  93 SW8       29.80S
HUNTINGTON     CLOUDY    54  51  90 S6        29.86S
CHARLESTON     CLOUDY    49  48  97 CALM      29.88R
PINEVILLE*     CLOUDY    44  41  91 MISG      29.97S FOG
BECKLEY        CLOUDY    52  49  89 CALM      29.92S
BLUEFIELD      CLOUDY    48  46  93 E3        29.95R
LOGAN CO APT*  PTSUNNY   52  52 100 CALM      29.90R
$$

VAZ002-007-008-TNZ017-027-036-066-071-231300
...SOUTHWEST VIRGINIA/EAST TENNESSEE...

CITY           SKY/WX    TMP DP  RH WIND       PRES   REMARKS
WISE*          PTCLDY    46  46 100 CALM      29.94R FOG
JONESVILLE*    FOG       45  45 100 CALM      29.95R VSB 1/4
ABINGDON*      MOCLDY    47  47 100 E6        29.94R
BRISTOL        FOG       43  42  97 CALM      29.94R VSB 1/16
MORRISTOWN*    CLOUDY    48  48 100 CALM      29.91R FOG
SEVIERVILLE*   CLOUDY    48  48 100 CALM      29.91S
KNOXVILLE      FOG       53  52  96 CALM      29.90R VSB 1/8
LAFOLLETTE*    FOG       52  52 100 CALM      29.94S VSB 1/2
OAK RIDGE      FOG       52  51  97 CALM      29.92S VSB 1/4
CROSSVILLE     MOCLDY    55  53  93 VRB5      29.91R
NASHVILLE      CLEAR     53  50  89 CALM      29.86R
$$

...KEY TO REMARKS...
VSB - VISIBILITY IN MILES
WCI - WIND CHILL INDEX
HX  - HEAT INDEX

$$




USA.gov is the U.S. government's official web portal to all federal, state and local government web resources and services.